Back to catalog

STARLINK-5988

AliveCommunicationsSSO
NORAD 56320·PAYLOAD·🇺🇸 United States

Launched Apr 27, 2023 from Vandenberg Space Force Base

Loading…

Next Passes (next 24 hours)

TLE

FreshSource: CelesTrak SupGP

Epoch: Sep 14, 2026, 14:17 UTC

1 56320C 23058D   26257.59562500  .00554650  00000+0  32628-1 0  2571
2 56320  97.2855 251.7052 0001662  90.4199  75.5408 15.11462173    14

Track STARLINK-5988 in real time with AllMySat

Download on the App Store